Tracking 20621 objects as of 31-Mar-2020
HD Live streaming from Space Station
objects crossing your sky now

OPS 4029

Track OPS 4029 now!
OPS 4029 is classified as:


NORAD ID: 12930
Int'l Code: 1981-107A
Perigee: 32,033.2 km
Apogee: 39,501.8 km
Inclination: 6.9 °
Period: 1,434.8 minutes
Semi major axis: 42138 km
RCS: Unknown
Launch date: October 31, 1981
Source: United States (US)
Launch site: AIR FORCE EASTERN TEST RANGE (AFETR)
aabbcc
Your satellite tracking list
Your tracking list is empty




NASA's NSSDC Master Catalog

Two Line Element Set (TLE):
1 12930U 81107A   20064.82814347 0.00000000  00000-0  00000-0 0    04
2 12930   6.8928 351.8971 0886192 350.0605   8.3011  1.00365383    09
Source of the keplerian elements: McCants